Regional Weather Roundup
Issued by NWS

Home | Current Version | Previous Version | Graphics & Text | Print | Product List | Glossary On
Versions: 1 2 3 4 5 6 7 8 9 10 11 12 13 14 15 16 17 18 19 20 21 22 23 24 25 26 27 28 29 30 31 32 33 34 35 36 37 38 39 40 41 42 43 44 45 46 47 48 49 50
000
ASUS43 KIND 192009
RWRIN

WEATHER ROUNDUP FOR INDIANA
NATIONAL WEATHER SERVICE INDIANAPOLIS IN
400 PM EDT FRI SEP 19 2014

NOTE: "FAIR" INDICATES FEW OR NO CLOUDS BELOW 12,000 FEET WITH NO
SIGNIFICANT WEATHER AND/OR OBSTRUCTIONS TO VISIBILITY.

* - STATION DOES NOT REPORT WEATHER SUCH AS PRECIPITATION OR FOG.

+ - STATION NOT QUALITY CONTROLLED BY THE NATIONAL WEATHER SERVICE.
    USE DATA WITH CAUTION...ESPECIALLY DEWPOINT AND RELATIVE
    HUMIDITY OBSERVATIONS.

INZ001>003-010>013-019-020-192100-
NORTHWEST INDIANA

CITY           SKY/WX    TMP DP  RH WIND       PRES   REMARKS
GARY /AIRPORT/ MOSUNNY   75  45  33 SE12      30.09
KNOX *+        SUNNY     73  46  38 S9        30.10F
LA PORTE +     SUNNY     71  46  41 S8G16     30.11F
MICHIGAN CITY+ SUNNY     72  45  37 S9        30.10F
MONTICELLO +   SUNNY     72  47  41 S8        30.10F
RENSSELAER +   SUNNY     73  45  35 SE9G18    30.09F
VALPARAISO     SUNNY     73  46  38 SE9       30.10F

$$

LMZ046-743>745-192100-
SOUTHERN LAKE MICHIGAN

STATION/POSITION TIME  TEMP WIND        PRES
                       AIR  DIR/SP/G
                 (UTC) (F)  (DEG/KT/KT) (MB)
MICHIGAN CITY    2000   70  140/ 13/ 19   N/A

$$

INZ004-005-014>016-021>024-192100-
NORTH CENTRAL INDIANA

CITY           SKY/WX    TMP DP  RH WIND       PRES   REMARKS
ELKHART        SUNNY     72  48  43 SE12      30.12
GOSHEN         SUNNY     72  48  42 SE14      30.12F
LOGANSPORT +   SUNNY     72  43  35 SE5       30.11F
PERU/GRISSOM   SUNNY     73  51  46 SE10      30.11F
ROCHESTER +    SUNNY     73  46  38 S9        30.12F
SOUTH BEND     SUNNY     72  45  37 S10       30.11F
WARSAW +       SUNNY     70  48  46 SE7       30.13F

$$

INZ006>009-017-018-025>027-192100-
NORTHEAST INDIANA

CITY           SKY/WX    TMP DP  RH WIND       PRES   REMARKS
ANGOLA *+      SUNNY     70  50  49 SE6       30.14F
AUBURN +       MOSUNNY   70  45  40 E7        30.15S
FORT WAYNE     MOSUNNY   69  48  47 VRB7      30.15F
HUNTINGTON +   MOSUNNY   70  50  48 SE7       30.13S

$$

INZ028-029-035-036-043>045-051>053-192100-
WEST CENTRAL INDIANA

CITY           SKY/WX    TMP DP  RH WIND       PRES   REMARKS
GREENCASTLE +  SUNNY     72  50  46 SE10      30.11F
LAFAYETTE      SUNNY     72  47  40 SE7       30.09F
TERRE HAUTE    SUNNY     74  49  41 SE9       30.09F

$$

INZ030>032-037>040-046>048-054>057-064-065-192100-
CENTRAL INDIANA

CITY           SKY/WX    TMP DP  RH WIND       PRES   REMARKS
CP ATTERBURY + SUNNY     73  46  38 S9        30.11F
COLUMBUS       SUNNY     73  45  35 E12       30.12F
FRANKFORT +    SUNNY     74  46  36 SE7       30.12F
GREENWOOD *+   SUNNY     75  50  41 SE7       30.11F
INDIANAPOLIS   MOSUNNY   73  47  39 S10       30.10F
-EAGLE CREEK   SUNNY     73  44  35 S8        30.11F
KOKOMO *+      SUNNY     72  48  43 S12       30.12F
MARION +       MOSUNNY   72  45  37 S10       30.13F
MT COMFORT *+  SUNNY     73  32  21 E8        30.12F
SHELBYVILLE    SUNNY     75  46  35 S6        30.10F
ZIONSVILLE +   SUNNY     73  44  36 S5        30.12F

$$

INZ033-034-041-042-049-050-058-059-192100-
EAST CENTRAL INDIANA

CITY           SKY/WX    TMP DP  RH WIND       PRES   REMARKS
MUNCIE         MOSUNNY   72  44  36 S8G16     30.11F

$$

INZ060-061-067>069-081>083-085>088-192100-
SOUTHWEST INDIANA

CITY           SKY/WX    TMP DP  RH WIND       PRES   REMARKS
EVANSVILLE     SUNNY     79  51  37 E10       30.06F
WASHINGTON +   SUNNY     76  52  43 SE8       30.07F

$$

INZ062-063-066-070>080-084-089>092-192100-
SOUTH CENTRAL AND SOUTHEAST INDIANA

CITY           SKY/WX    TMP DP  RH WIND       PRES   REMARKS
BLOOMINGTON    SUNNY     73  47  39 E9        30.10F

$$



USA.gov is the U.S. government's official web portal to all federal, state and local government web resources and services.